Regional Weather Roundup
Issued by NWS

Home | Current Version | Previous Version | Graphics & Text | Print | Product List | Glossary On
Versions: 1 2 3 4 5 6 7 8 9 10 11 12 13 14 15 16 17 18 19 20 21 22 23 24 25 26 27 28 29 30 31 32 33 34 35 36 37 38 39 40 41 42 43 44 45 46 47 48 49 50
000
ASUS43 KFSD 200702
RWRSD

WEATHER ROUNDUP FOR SOUTH DAKOTA
NATIONAL WEATHER SERVICE SIOUX FALLS SD
100 AM CST FRI JAN 20 2017

NOTE: "FAIR" INDICATES FEW OR NO CLOUDS BELOW 12,000 FEET WITH NO
SIGNIFICANT WEATHER AND/OR OBSTRUCTIONS TO VISIBILITY.


SDZ001>005-009-010-012>017-200800-
NORTHWEST AND NORTH CENTRAL SOUTH DAKOTA

CITY           SKY/WX    TMP DP  RH WIND       PRES   REMARKS
BUFFALO          N/A     25  17  72 W13       29.34S WCI  14
FAITH            N/A     20  18  92 NW8       29.39F WCI  10
MOBRIDGE       FOG       25  21  85 NW3       29.42F VSB 1/4
$$

SDZ012>016-024>037-041>051-057-063-072>074-200800-
SOUTHWEST AND SOUTH CENTRAL SOUTH DAKOTA

CITY           SKY/WX    TMP DP  RH WIND       PRES   REMARKS
RAPID CTY ARPT CLOUDY    25  17  72 NW6       29.40F WCI  18
PIERRE         FOG       22  21  96 CALM      29.43F VSB 1/4
CUSTER         CLOUDY    27  19  72 CALM      29.42F
ELLSWORTH AFB  CLOUDY    28  19  69 CALM      29.39F
PHILIP         CLOUDY    13  11  92 W9        29.41F WCI   1
PINE RIDGE     CLOUDY    25  21  85 W3        29.45F
SPEARFISH      FAIR      36  23  60 W10       29.43S
WINNER         PTSUNNY   35  33  92 S10       29.45S WCI  27
$$

SDZ004>011-016>023-039-040-200800-
NORTHEAST SOUTH DAKOTA

CITY           SKY/WX    TMP DP  RH WIND       PRES   REMARKS
ABERDEEN       CLOUDY    34  32  92 SE13      29.51S FOG     WCI  25
WATERTOWN      FOG       34  34 100 S14       29.52F VSB 3/4 WCI  25
BROOKINGS      CLOUDY    35  35 100 S10       29.54F FOG     WCI  27
SISSETON         N/A     34  34 100 S8        29.54F WCI  27
$$

SDZ017-020-022-023-036>040-048>070-200800-
SOUTHEAST SOUTH DAKOTA

CITY           SKY/WX    TMP DP  RH WIND       PRES   REMARKS
SIOUX FALLS    CLOUDY    37  37 100 S9        29.57F FOG
HURON          CLOUDY    37  37 100 SE12      29.50F
CHAMBERLAIN    CLOUDY    38  37  97 S8        29.47S
MITCHELL       CLOUDY    39  38  96 SE14      29.52F FOG
YANKTON        CLOUDY    37  36  93 SE8       29.55F
$$

ABBREVIATIONS USED IN REMARKS
   TC - TEMPERATURE IN CELSIUS
  WCI - WIND CHILL INDEX
   HX - HEAT INDEX
  VSB - VISIBILITY




USA.gov is the U.S. government's official web portal to all federal, state and local government web resources and services.